FW3825 Weather Reports


Display with metric or nautical units.
time (UTC)temp
F
wind
direction
speed
MPH
gust
MPH
rain 1hr
in
rain 24hr
in
rain mn
in
humidity
%
barometer
mb
20210418074658 50 168 1.0 8.0 0.00 0.00 0.00 77 1017.6
20210418074312 50 169 1.0 8.0 0.00 0.00 0.00 77 1017.7
20210418074155 50 144 1.0 8.0 0.00 0.00 0.00 77 1017.7
20210418073451 50 196 1.0 8.0 0.00 0.00 0.00 77 1017.9
20210418073046 50 161 0.0 4.0 0.00 0.00 0.00 78 1017.9
20210418072203 50 144 0.0 4.0 0.00 0.00 0.00 77 1018.1
20210418072012 50 162 0.0 4.0 0.00 0.00 0.00 78 1018.1
20210418071536 50 121 0.0 4.0 0.00 0.00 0.00 78 1018.1
20210418071436 50 157 0.0 4.0 0.00 0.00 0.00 78 1018.1
20210418071337 50 159 0.0 4.0 0.00 0.00 0.00 78 1018.1
20210418070335 50 181 0.0 9.0 0.00 0.00 0.00 78 1017.6
20210418070235 50 132 0.0 9.0 0.00 0.00 0.00 78 1017.7
20210418070135 50 159 1.0 9.0 0.00 0.00 0.00 78 1017.7
20210418070032 50 154 1.0 9.0 0.00 0.00 0.00 78 1017.7
20210418065931 50 159 1.0 9.0 0.00 0.00 0.00 78 1017.6
20210418065754 50 131 1.0 9.0 0.00 0.00 0.00 78 1017.6
20210418065744 50 152 1.0 9.0 0.00 0.00 0.00 78 1017.7
20210418065726 50 121 1.0 9.0 0.00 0.00 0.00 78 1017.7
20210418065543 50 146 1.0 9.0 0.00 0.00 0.00 78 1017.7
20210418065447 50 150 1.0 9.0 0.00 0.00 0.00 78 1017.7
20210418065331 50 130 0.0 5.0 0.00 0.00 0.00 78 1017.7
20210418065032 50 99 0.0 5.0 0.00 0.00 0.00 78 1017.7
20210418064928 50 101 0.0 5.0 0.00 0.00 0.00 78 1017.7
20210418064732 50 185 0.0 5.0 0.00 0.00 0.00 78 1017.7
20210418064627 50 142 0.0 5.0 0.00 0.00 0.00 78 1017.7
20210418064229 50 165 0.0 5.0 0.00 0.00 0.00 78 1017.7
20210418064128 50 159 0.0 5.0 0.00 0.00 0.00 78 1017.6
20210418064023 50 171 0.0 5.0 0.00 0.00 0.00 78 1017.7
20210418063636 50 105 1.0 5.0 0.00 0.00 0.00 78 1017.5
20210418063520 50 123 1.0 4.0 0.00 0.00 0.00 78 1017.6
20210418063419 50 160 1.0 4.0 0.00 0.00 0.00 78 1017.5
20210418063327 50 171 1.0 4.0 0.00 0.00 0.00 78 1017.6
20210418063218 50 165 1.0 4.0 0.00 0.00 0.00 79 1017.5
20210418063121 50 205 1.0 4.0 0.00 0.00 0.00 79 1017.5
20210418062815 50 157 0.0 3.0 0.00 0.00 0.00 79 1017.4
20210418062800 50 182 0.0 3.0 0.00 0.00 0.00 79 1017.4
20210418062745 50 201 0.0 3.0 0.00 0.00 0.00 79 1017.4
20210418062351 50 173 0.0 2.0 0.00 0.00 0.00 79 1017.4
20210418061722 50 171 0.0 2.0 0.00 0.00 0.00 79 1017.4
20210418061614 50 169 0.0 2.0 0.00 0.00 0.00 79 1017.5
20210418061524 50 157 0.0 2.0 0.00 0.00 0.00 79 1017.5
20210418061417 50 166 0.0 2.0 0.00 0.00 0.00 79 1017.5
20210418061319 50 178 0.0 2.0 0.00 0.00 0.00 79 1017.5
20210418060912 50 153 0.0 1.0 0.00 0.00 0.00 78 1017.5
20210418060820 50 152 0.0 3.0 0.00 0.00 0.00 78 1017.5
20210418060417 50 171 0.0 3.0 0.00 0.00 0.00 78 1017.5
20210418060314 50 148 0.0 3.0 0.00 0.00 0.00 78 1017.5
20210418060237 50 143 0.0 3.0 0.00 0.00 0.00 78 1017.5
20210418060047 50 179 0.0 3.0 0.00 0.00 0.00 78 1017.5
20210418060036 50 167 0.0 3.0 0.00 0.00 0.00 78 1017.5
20210418055814 50 156 0.0 3.0 0.00 0.00 0.00 78 1017.6
20210418055622 50 167 0.0 3.0 0.00 0.00 0.00 78 1017.6
20210418055524 50 221 0.0 3.0 0.00 0.00 0.00 78 1017.6
20210418055230 50 238 0.0 3.0 0.00 0.00 0.00 77 1017.6
20210418055116 50 238 0.0 4.0 0.00 0.00 0.00 77 1017.6
20210418054924 50 132 0.0 4.0 0.00 0.00 0.00 77 1017.6
20210418054659 50 132 0.0 4.0 0.00 0.00 0.00 77 1017.6
20210418054548 50 176 0.0 4.0 0.00 0.00 0.00 77 1017.7
20210418054447 51 173 0.0 4.0 0.00 0.00 0.00 77 1017.7
20210418054343 51 157 0.0 4.0 0.00 0.00 0.00 77 1017.7
20210418054250 51 165 0.0 4.0 0.00 0.00 0.00 77 1017.7
20210418053240 51 168 0.0 4.0 0.00 0.00 0.00 77 1017.7
20210418053138 51 190 0.0 4.0 0.00 0.00 0.00 77 1017.8
20210418052829 51 155 0.0 4.0 0.00 0.00 0.00 77 1017.9
20210418052757 51 132 0.0 4.0 0.00 0.00 0.00 77 1017.9
20210418052704 51 128 0.0 4.0 0.00 0.00 0.00 77 1017.9
20210418052102 51 155 0.0 3.0 0.00 0.00 0.00 77 1018.0
20210418051132 51 148 0.0 3.0 0.00 0.00 0.00 76 1017.9
20210418050427 52 176 0.0 5.0 0.00 0.00 0.00 75 1017.9
20210418050331 52 173 0.0 5.0 0.00 0.00 0.00 75 1017.9
20210418050227 52 171 0.0 5.0 0.00 0.00 0.00 75 1017.9
20210418045036 52 153 0.0 5.0 0.00 0.00 0.00 74 1018.0
20210418043618 53 162 0.0 4.0 0.00 0.00 0.00 73 1018.1
20210418043220 53 148 0.0 4.0 0.00 0.00 0.00 73 1018.0
20210418042705 53 182 0.0 3.0 0.00 0.00 0.00 73 1018.1
20210418042527 53 186 0.0 3.0 0.00 0.00 0.00 73 1018.2
20210418041653 53 162 0.0 3.0 0.00 0.00 0.00 73 1018.3
20210418040340 54 186 0.0 3.0 0.00 0.00 0.00 72 1018.4
20210418040240 54 184 0.0 5.0 0.00 0.00 0.00 72 1018.6
20210418035904 54 187 0.0 5.0 0.00 0.00 0.00 72 1018.7
20210418035734 54 153 0.0 5.0 0.00 0.00 0.00 72 1018.7
20210418035627 54 106 0.0 5.0 0.00 0.00 0.00 72 1018.7
20210418035550 54 203 0.0 5.0 0.00 0.00 0.00 72 1018.7
20210418035434 54 113 0.0 5.0 0.00 0.00 0.00 72 1018.7
20210418034750 54 155 0.0 5.0 0.00 0.00 0.00 72 1018.6
20210418034048 54 138 0.0 3.0 0.00 0.00 0.00 73 1018.5
20210418033624 54 121 0.0 3.0 0.00 0.00 0.00 73 1018.7
20210418033230 54 120 0.0 3.0 0.00 0.00 0.00 73 1018.7
20210418033126 54 120 0.0 3.0 0.00 0.00 0.00 73 1018.6
20210418033052 54 170 0.0 3.0 0.00 0.00 0.00 73 1018.6
20210418031709 54 163 0.0 3.0 0.00 0.00 0.00 72 1018.3
20210418031614 54 163 0.0 3.0 0.00 0.00 0.00 72 1018.3
20210418030219 54 122 0.0 2.0 0.00 0.00 0.00 71 1018.1
20210418030154 55 123 0.0 2.0 0.00 0.00 0.00 71 1018.1
20210418030129 55 138 0.0 2.0 0.00 0.00 0.00 71 1018.1
20210418030100 55 149 0.0 3.0 0.00 0.00 0.00 71 1018.1
20210418025747 55 134 0.0 3.0 0.00 0.00 0.00 71 1018.1
20210418025629 54 159 0.0 3.0 0.00 0.00 0.00 71 1018.1
20210418025453 54 159 0.0 3.0 0.00 0.00 0.00 71 1018.0
20210418025300 55 159 0.0 3.0 0.00 0.00 0.00 71 1018.0
20210418025111 55 159 0.0 3.0 0.00 0.00 0.00 71 1018.0
20210418024831 55 155 0.0 3.0 0.00 0.00 0.00 71 1018.1
20210418024355 55 163 0.0 3.0 0.00 0.00 0.00 71 1018.1
20210418023656 55 153 0.0 1.0 0.00 0.00 0.00 71 1018.0
20210418023555 55 167 0.0 1.0 0.00 0.00 0.00 71 1018.0
20210418023511 55 165 0.0 1.0 0.00 0.00 0.00 71 1018.1
20210418023358 55 169 0.0 4.0 0.00 0.00 0.00 71 1018.1
20210418022654 55 158 0.0 4.0 0.00 0.00 0.00 71 1017.8
20210418021356 55 188 0.0 3.0 0.00 0.00 0.00 70 1017.7
20210418021257 55 184 0.0 3.0 0.00 0.00 0.00 70 1017.6
20210418020853 55 137 0.0 3.0 0.00 0.00 0.00 69 1017.6
20210418020459 55 142 0.0 3.0 0.00 0.00 0.00 70 1017.5
20210418020054 55 171 0.0 5.0 0.00 0.00 0.00 70 1017.5
20210418015958 55 171 0.0 5.0 0.00 0.00 0.00 69 1017.4
20210418015656 55 163 0.0 9.0 0.00 0.00 0.00 69 1017.3
20210418015609 55 173 0.0 9.0 0.00 0.00 0.00 69 1017.3
20210418014442 55 173 1.0 9.0 0.00 0.00 0.00 69 1017.3
20210418013031 55 181 0.0 6.0 0.00 0.00 0.00 68 1017.2
20210418012712 55 163 0.0 7.0 0.00 0.00 0.00 69 1017.0
20210418011742 55 157 1.0 7.0 0.00 0.00 0.00 68 1017.0
20210418011640 55 193 1.0 7.0 0.00 0.00 0.00 68 1017.0
20210418011537 55 220 1.0 7.0 0.00 0.00 0.00 68 1016.9
20210418011136 55 172 1.0 11.0 0.00 0.00 0.00 68 1016.8
20210418011033 55 136 2.0 11.0 0.00 0.00 0.00 68 1016.8
20210418010634 55 144 2.0 11.0 0.00 0.00 0.00 68 1016.7
20210418005931 55 208 1.0 11.0 0.00 0.00 0.00 68 1016.6
20210418005914 55 170 1.0 11.0 0.00 0.00 0.00 68 1016.6
20210418005856 55 261 1.0 11.0 0.00 0.00 0.00 68 1016.5
20210418005708 55 195 1.0 10.0 0.00 0.00 0.00 69 1016.4
20210418005523 55 158 1.0 10.0 0.00 0.00 0.00 69 1016.3
20210418005416 55 196 1.0 10.0 0.00 0.00 0.00 69 1016.4
20210418005228 55 163 0.0 10.0 0.00 0.00 0.00 70 1016.4
20210418005043 55 158 1.0 8.0 0.00 0.00 0.00 70 1016.4
20210418004920 55 148 1.0 8.0 0.00 0.00 0.00 70 1016.4
20210418004429 55 204 1.0 8.0 0.00 0.00 0.00 69 1016.5
20210418004323 55 216 1.0 8.0 0.00 0.00 0.00 70 1016.4
20210418004225 55 204 1.0 8.0 0.00 0.00 0.00 70 1016.5
20210418003826 55 182 1.0 10.0 0.00 0.00 0.00 69 1016.5
20210418002922 56 201 1.0 10.0 0.00 0.00 0.00 68 1016.4
20210418002907 56 115 1.0 10.0 0.00 0.00 0.00 69 1016.4
20210418002844 56 244 1.0 10.0 0.00 0.00 0.00 68 1016.3
20210418002027 56 155 1.0 6.0 0.00 0.00 0.00 69 1016.2
20210418001905 55 211 1.0 6.0 0.00 0.00 0.00 69 1016.2
20210418001412 55 269 2.0 9.0 0.00 0.00 0.00 70 1016.2
20210418000703 55 176 1.0 9.0 0.00 0.00 0.00 69 1016.1
20210417235816 56 177 1.0 11.0 0.00 0.00 0.00 68 1016.2
20210417234701 56 191 2.0 12.0 0.00 0.00 0.00 67 1016.1
20210417234559 56 134 2.0 12.0 0.00 0.00 0.00 67 1016.1
20210417234151 56 215 3.0 12.0 0.00 0.00 0.00 67 1016.1
20210417234048 56 179 3.0 12.0 0.00 0.00 0.00 67 1016.1
20210417233944 56 68 2.0 12.0 0.00 0.00 0.00 67 1016.1
20210417233858 56 227 3.0 12.0 0.00 0.00 0.00 67 1016.1
20210417233742 56 232 3.0 12.0 0.00 0.00 0.00 67 1016.1
20210417233336 56 158 2.0 12.0 0.00 0.00 0.00 67 1016.0
20210417232931 56 248 2.0 12.0 0.00 0.00 0.00 67 1015.9
20210417232519 56 199 2.0 10.0 0.00 0.00 0.00 66 1015.8
20210417232330 56 219 2.0 10.0 0.00 0.00 0.00 66 1015.8
20210417232200 56 190 2.0 10.0 0.00 0.00 0.00 66 1015.8
20210417232028 56 212 2.0 10.0 0.00 0.00 0.00 66 1015.8
20210417231917 56 200 2.0 10.0 0.00 0.00 0.00 66 1015.8
20210417231725 56 217 2.0 10.0 0.00 0.00 0.00 66 1015.8
20210417231630 56 181 1.0 10.0 0.00 0.00 0.00 66 1015.9
20210417231526 56 222 1.0 10.0 0.00 0.00 0.00 67 1015.9
20210417231421 56 178 2.0 9.0 0.00 0.00 0.00 67 1015.9
20210417231030 56 205 2.0 9.0 0.00 0.00 0.00 68 1015.9
20210417230928 56 278 2.0 14.0 0.00 0.00 0.00 67 1015.8
20210417230813 56 197 2.0 14.0 0.00 0.00 0.00 67 1015.8
20210417230713 56 161 3.0 14.0 0.00 0.00 0.00 67 1015.9
20210417230612 56 174 3.0 14.0 0.00 0.00 0.00 68 1015.8
20210417225735 55 263 2.0 14.0 0.00 0.00 0.00 68 1015.9
20210417225551 55 209 2.0 14.0 0.00 0.00 0.00 68 1015.9
20210417225424 55 218 2.0 14.0 0.00 0.00 0.00 68 1015.9
20210417225120 55 176 2.0 14.0 0.00 0.00 0.00 69 1016.0
20210417224915 56 227 2.0 14.0 0.00 0.00 0.00 69 1015.9
20210417224822 56 175 2.0 14.0 0.00 0.00 0.00 70 1015.9
20210417224055 57 218 4.0 14.0 0.00 0.00 0.00 64 1015.8
20210417223354 57 139 3.0 15.0 0.00 0.00 0.00 63 1015.5
20210417223257 57 180 3.0 15.0 0.00 0.00 0.00 63 1015.6
20210417223156 57 194 3.0 15.0 0.00 0.00 0.00 63 1015.7
20210417222953 57 227 2.0 15.0 0.00 0.00 0.00 62 1015.8
20210417222934 57 159 2.0 15.0 0.00 0.00 0.00 62 1015.8
20210417222925 57 146 3.0 15.0 0.00 0.00 0.00 62 1015.7
20210417222755 58 199 3.0 15.0 0.00 0.00 0.00 61 1015.8
20210417221928 58 193 4.0 15.0 0.00 0.00 0.00 60 1015.7
20210417221651 58 191 4.0 15.0 0.00 0.00 0.00 59 1015.7
20210417220041 58 179 4.0 16.0 0.00 0.00 0.00 59 1015.6
20210417215748 58 217 5.0 16.0 0.00 0.00 0.00 60 1015.7
20210417215722 58 214 5.0 16.0 0.00 0.00 0.00 60 1015.6
20210417214539 58 216 5.0 15.0 0.00 0.00 0.00 58 1015.6
20210417214434 58 53 5.0 15.0 0.00 0.00 0.00 58 1015.7
20210417214343 59 186 5.0 15.0 0.00 0.00 0.00 59 1015.7
20210417213931 59 207 5.0 15.0 0.00 0.00 0.00 56 1015.6
20210417212931 59 139 3.0 15.0 0.00 0.00 0.00 58 1015.6
20210417212850 59 146 4.0 17.0 0.00 0.00 0.00 59 1015.6
20210417212839 59 253 4.0 17.0 0.00 0.00 0.00 58 1015.7
20210417212817 59 186 4.0 17.0 0.00 0.00 0.00 58 1015.6
20210417212747 59 173 4.0 17.0 0.00 0.00 0.00 57 1015.7
20210417212648 59 200 4.0 17.0 0.00 0.00 0.00 57 1015.7
20210417212533 59 223 4.0 17.0 0.00 0.00 0.00 57 1015.7
20210417211953 60 146 5.0 17.0 0.00 0.00 0.00 55 1015.8
20210417210020 60 161 4.0 16.0 0.00 0.00 0.00 53 1015.6
20210417205919 60 217 4.0 15.0 0.00 0.00 0.00 54 1015.6
20210417204601 59 155 6.0 18.0 0.00 0.00 0.00 54 1015.5
20210417204458 59 187 6.0 18.0 0.00 0.00 0.00 54 1015.6
20210417204357 59 178 6.0 18.0 0.00 0.00 0.00 54 1015.7
20210417204301 59 142 6.0 18.0 0.00 0.00 0.00 53 1015.7
20210417203558 61 213 5.0 16.0 0.00 0.00 0.00 53 1015.8
20210417203500 61 138 5.0 16.0 0.00 0.00 0.00 54 1015.8
20210417203405 61 150 5.0 16.0 0.00 0.00 0.00 51 1015.8
20210417202308 60 232 6.0 16.0 0.00 0.00 0.00 52 1015.7
20210417201653 60 181 5.0 19.0 0.00 0.00 0.00 53 1015.8
20210417201553 60 229 5.0 19.0 0.00 0.00 0.00 53 1015.8
20210417200848 61 202 5.0 19.0 0.00 0.00 0.00 54 1015.6
20210417200446 60 198 6.0 19.0 0.00 0.00 0.00 54 1015.4
20210417200042 60 182 6.0 19.0 0.00 0.00 0.00 54 1015.5
20210417195941 60 148 6.0 19.0 0.00 0.00 0.00 54 1015.5
20210417195842 60 148 5.0 19.0 0.00 0.00 0.00 54 1015.7
20210417195729 60 213 5.0 16.0 0.00 0.00 0.00 54 1015.7
20210417195650 60 205 6.0 16.0 0.00 0.00 0.00 55 1015.6
20210417194642 59 143 5.0 16.0 0.00 0.00 0.00 55 1015.8
20210417194540 59 111 5.0 16.0 0.00 0.00 0.00 54 1015.8
20210417194139 60 192 6.0 16.0 0.00 0.00 0.00 56 1015.9
20210417194040 59 171 6.0 16.0 0.00 0.00 0.00 56 1015.8
20210417193939 59 163 6.0 16.0 0.00 0.00 0.00 55 1015.9
20210417193840 59 213 6.0 16.0 0.00 0.00 0.00 54 1015.9
20210417193740 59 129 6.0 16.0 0.00 0.00 0.00 54 1015.9
20210417193640 59 149 6.0 16.0 0.00 0.00 0.00 54 1015.9
20210417193551 59 114 6.0 16.0 0.00 0.00 0.00 54 1015.9
20210417193443 59 130 5.0 15.0 0.00 0.00 0.00 54 1015.8
20210417193346 60 202 5.0 15.0 0.00 0.00 0.00 55 1015.9
20210417193253 60 181 4.0 15.0 0.00 0.00 0.00 55 1015.9
20210417193136 60 155 4.0 15.0 0.00 0.00 0.00 54 1015.9
20210417192848 60 97 5.0 17.0 0.00 0.00 0.00 54 1015.9
20210417192843 61 211 5.0 17.0 0.00 0.00 0.00 54 1015.9
20210417192825 61 138 4.0 17.0 0.00 0.00 0.00 55 1015.9
20210417192359 60 215 5.0 17.0 0.00 0.00 0.00 55 1015.8
20210417192159 60 211 5.0 17.0 0.00 0.00 0.00 56 1015.8
20210417191629 59 182 4.0 19.0 0.00 0.00 0.00 58 1015.7
20210417191527 59 207 5.0 19.0 0.00 0.00 0.00 58 1015.7
20210417190225 59 149 7.0 20.0 0.00 0.00 0.00 57 1015.8
20210417185822 60 190 7.0 23.0 0.00 0.00 0.00 55 1015.6
20210417185421 61 108 7.0 23.0 0.00 0.00 0.00 56 1015.3
20210417185159 61 199 7.0 23.0 0.00 0.00 0.00 56 1015.3
20210417184936 61 136 7.0 23.0 0.00 0.00 0.00 57 1015.3
20210417184517 60 138 7.0 23.0 0.00 0.00 0.00 58 1015.3
20210417183817 60 219 7.0 19.0 0.00 0.00 0.00 59 1015.5
20210417183711 60 191 6.0 19.0 0.00 0.00 0.00 59 1015.5
20210417183618 60 155 6.0 19.0 0.00 0.00 0.00 61 1015.5
20210417183512 60 182 6.0 19.0 0.00 0.00 0.00 59 1015.6
20210417183107 61 156 5.0 17.0 0.00 0.00 0.00 60 1015.7
20210417182927 60 119 6.0 16.0 0.00 0.00 0.00 61 1015.3
20210417182909 60 236 6.0 16.0 0.00 0.00 0.00 60 1015.3
20210417182721 60 196 6.0 18.0 0.00 0.00 0.00 59 1015.4
20210417182526 60 165 7.0 18.0 0.00 0.00 0.00 59 1015.4
20210417182338 60 148 7.0 18.0 0.00 0.00 0.00 58 1015.4
20210417181601 60 154 6.0 18.0 0.00 0.00 0.00 57 1015.4
20210417181501 60 214 6.0 18.0 0.00 0.00 0.00 57 1015.4
20210417181058 60 115 6.0 19.0 0.00 0.00 0.00 55 1015.6
20210417180652 60 185 6.0 19.0 0.00 0.00 0.00 59 1015.6
20210417180551 60 148 6.0 19.0 0.00 0.00 0.00 59 1015.7
20210417175636 58 175 5.0 21.0 0.00 0.00 0.00 63 1015.7
20210417175453 58 148 5.0 21.0 0.00 0.00 0.00 62 1015.6
20210417175331 58 209 5.0 21.0 0.00 0.00 0.00 61 1015.7
20210417174654 58 150 5.0 21.0 0.00 0.00 0.00 61 1015.8
20210417174544 58 167 5.0 21.0 0.00 0.00 0.00 61 1016.0
20210417174138 58 115 5.0 15.0 0.00 0.00 0.00 62 1016.0
20210417174041 58 173 6.0 15.0 0.00 0.00 0.00 61 1015.9
20210417173634 58 116 5.0 15.0 0.00 0.00 0.00 63 1015.8
20210417173535 58 259 5.0 15.0 0.00 0.00 0.00 63 1015.8
20210417173434 58 194 5.0 15.0 0.00 0.00 0.00 63 1015.9
20210417173331 58 207 5.0 15.0 0.00 0.00 0.00 62 1016.0
20210417172713 58 134 6.0 15.0 0.00 0.00 0.00 65 1015.9
20210417172618 58 184 6.0 21.0 0.00 0.00 0.00 65 1016.0
20210417172426 57 157 6.0 21.0 0.00 0.00 0.00 65 1016.1
20210417172134 57 182 6.0 21.0 0.00 0.00 0.00 65 1016.1
20210417172020 57 231 6.0 21.0 0.00 0.00 0.00 66 1016.1
20210417171837 57 155 6.0 21.0 0.00 0.00 0.00 65 1016.1
20210417171723 57 103 6.0 21.0 0.00 0.00 0.00 64 1016.2
20210417171320 58 190 5.0 21.0 0.00 0.00 0.00 65 1016.4
20210417171218 58 128 6.0 23.0 0.00 0.00 0.00 64 1016.5
20210417171115 58 135 5.0 23.0 0.00 0.00 0.00 65 1016.3
20210417171022 58 102 5.0 23.0 0.00 0.00 0.00 65 1016.3
20210417170914 58 196 5.0 23.0 0.00 0.00 0.00 66 1016.3
20210417170224 57 250 6.0 23.0 0.00 0.00 0.00 67 1016.5
20210417170106 57 174 6.0 23.0 0.00 0.00 0.00 66 1016.4
20210417165837 57 150 6.0 23.0 0.00 0.00 0.00 66 1016.4
20210417165828 57 193 6.0 23.0 0.00 0.00 0.00 65 1016.4
20210417165557 57 115 6.0 19.0 0.00 0.00 0.00 69 1016.3
20210417165359 56 188 6.0 19.0 0.00 0.00 0.00 69 1016.5
20210417164052 56 142 5.0 19.0 0.00 0.00 0.00 69 1016.7
20210417163948 56 153 5.0 19.0 0.00 0.00 0.00 70 1016.7
20210417163551 56 187 5.0 19.0 0.00 0.00 0.00 69 1016.9
20210417163149 55 117 4.0 15.0 0.00 0.00 0.00 70 1017.0
20210417162907 55 203 4.0 18.0 0.00 0.00 0.00 70 1017.2
20210417162841 55 161 5.0 18.0 0.00 0.00 0.00 70 1017.3
20210417162816 55 200 5.0 18.0 0.00 0.00 0.00 70 1017.1
20210417162417 55 169 5.0 18.0 0.00 0.00 0.00 70 1017.2
20210417162218 55 149 5.0 18.0 0.00 0.00 0.00 71 1017.2
20210417162043 55 134 6.0 18.0 0.00 0.00 0.00 70 1017.1
20210417161232 55 150 4.0 19.0 0.00 0.00 0.00 71 1016.9
20210417160826 55 123 4.0 19.0 0.00 0.00 0.00 72 1016.8
20210417160118 55 222 5.0 19.0 0.00 0.00 0.00 71 1016.5
20210417155823 55 98 5.0 21.0 0.00 0.00 0.00 70 1016.8
20210417155634 55 201 4.0 21.0 0.00 0.00 0.00 72 1016.9
20210417155529 55 186 4.0 21.0 0.00 0.00 0.00 74 1016.8
20210417155334 54 150 4.0 21.0 0.00 0.00 0.00 74 1016.7
20210417154710 54 150 5.0 21.0 0.00 0.00 0.00 74 1016.6
20210417153705 53 184 4.0 14.0 0.00 0.00 0.00 75 1016.5
20210417153620 53 150 4.0 14.0 0.00 0.00 0.00 75 1016.6
20210417153511 53 148 4.0 14.0 0.00 0.00 0.00 75 1016.5
20210417153108 53 228 4.0 14.0 0.00 0.00 0.00 75 1016.8
20210417152753 53 169 3.0 13.0 0.00 0.00 0.00 75 1017.0
20210417152739 53 183 3.0 13.0 0.00 0.00 0.00 75 1017.1
20210417152731 53 200 3.0 13.0 0.00 0.00 0.00 76 1017.1
20210417152324 53 174 3.0 13.0 0.00 0.00 0.00 76 1017.3
20210417152117 52 147 3.0 12.0 0.00 0.00 0.00 76 1017.4
20210417151248 52 196 3.0 12.0 0.00 0.00 0.00 76 1017.8
20210417151150 52 227 3.0 12.0 0.00 0.00 0.00 76 1017.9
20210417150447 52 205 3.0 12.0 0.00 0.00 0.00 76 1017.7
20210417150345 52 217 3.0 12.0 0.00 0.00 0.00 76 1017.8
20210417145848 51 134 3.0 12.0 0.00 0.00 0.00 77 1017.8
20210417145833 51 248 4.0 12.0 0.00 0.00 0.00 77 1017.7
20210417145819 51 187 4.0 12.0 0.00 0.00 0.00 77 1017.6
20210417145740 51 161 4.0 15.0 0.00 0.00 0.00 77 1017.6
20210417145735 51 183 4.0 15.0 0.00 0.00 0.00 77 1017.5
20210417144948 51 158 3.0 15.0 0.00 0.00 0.00 76 1017.5
20210417144439 51 196 2.0 15.0 0.00 0.00 0.00 77 1017.4
20210417144339 51 225 3.0 15.0 0.00 0.00 0.00 77 1017.5
20210417144240 51 186 3.0 15.0 0.00 0.00 0.00 77 1017.5
20210417143534 51 190 3.0 15.0 0.00 0.00 0.00 76 1017.3
20210417143434 51 243 3.0 15.0 0.00 0.00 0.00 76 1017.5
20210417143032 51 201 3.0 12.0 0.00 0.00 0.00 76 1017.3
20210417141720 51 154 3.0 12.0 0.00 0.00 0.00 77 1017.1
20210417141320 51 224 3.0 12.0 0.00 0.00 0.00 77 1016.9
20210417141222 51 199 3.0 15.0 0.00 0.00 0.00 78 1017.0
20210417141122 51 138 3.0 15.0 0.00 0.00 0.00 78 1016.9
20210417141045 51 190 3.0 15.0 0.00 0.00 0.00 78 1017.0
20210417140924 51 223 3.0 15.0 0.00 0.00 0.00 77 1017.0
20210417140821 51 150 3.0 15.0 0.00 0.00 0.00 77 1017.1
20210417140720 51 183 3.0 15.0 0.00 0.00 0.00 77 1017.1
20210417140619 51 217 3.0 15.0 0.00 0.00 0.00 78 1017.1
20210417140532 51 121 3.0 15.0 0.00 0.00 0.00 78 1017.0
20210417140418 51 192 3.0 15.0 0.00 0.00 0.00 78 1017.0
20210417140317 51 155 3.0 15.0 0.00 0.00 0.00 78 1016.9
20210417140219 51 204 3.0 15.0 0.00 0.00 0.00 78 1016.8
20210417140116 51 199 3.0 15.0 0.00 0.00 0.00 78 1016.8
20210417140047 50 242 3.0 15.0 0.00 0.00 0.00 78 1016.7
20210417140030 51 229 4.0 15.0 0.00 0.00 0.00 78 1016.6
20210417135957 50 247 4.0 15.0 0.00 0.00 0.00 78 1016.7
20210417135949 50 172 4.0 15.0 0.00 0.00 0.00 78 1016.6
20210417135824 50 229 4.0 15.0 0.00 0.00 0.00 78 1016.6
20210417135653 50 169 4.0 14.0 0.00 0.00 0.00 78 1016.6
20210417135537 50 190 4.0 14.0 0.00 0.00 0.00 78 1016.6
20210417135251 50 196 3.0 14.0 0.00 0.00 0.00 78 1016.7
20210417134618 50 223 4.0 13.0 0.00 0.00 0.00 78 1016.7
20210417134522 50 137 3.0 13.0 0.00 0.00 0.00 79 1016.6
20210417134426 50 184 3.0 13.0 0.00 0.00 0.00 78 1016.6
20210417133709 50 194 2.0 13.0 0.00 0.00 0.00 78 1016.8
20210417132840 50 215 3.0 11.0 0.00 0.00 0.00 78 1016.8
20210417132824 50 218 3.0 11.0 0.00 0.00 0.00 78 1016.8
20210417132757 50 178 3.0 11.0 0.00 0.00 0.00 78 1016.8
20210417132355 50 122 2.0 17.0 0.00 0.00 0.00 78 1016.8
20210417131653 50 156 2.0 17.0 0.00 0.00 0.00 77 1016.8
20210417131556 50 148 2.0 17.0 0.00 0.00 0.00 78 1016.8
20210417131453 50 196 3.0 17.0 0.00 0.00 0.00 78 1016.8
20210417131357 50 171 3.0 17.0 0.00 0.00 0.00 78 1016.8
20210417131249 50 214 3.0 17.0 0.00 0.00 0.00 78 1016.8
20210417131145 50 152 3.0 17.0 0.00 0.00 0.00 78 1016.8
20210417131046 50 150 4.0 17.0 0.00 0.00 0.00 78 1016.8
20210417130645 51 246 3.0 17.0 0.00 0.00 0.00 78 1016.8
20210417125941 51 250 3.0 12.0 0.00 0.02 0.00 78 1016.6
20210417125855 51 234 3.0 14.0 0.00 0.02 0.00 78 1016.4
20210417125831 51 203 3.0 14.0 0.00 0.02 0.00 79 1016.4
20210417124748 51 137 3.0 14.0 0.00 0.02 0.00 80 1016.1
20210417124646 51 123 3.0 14.0 0.00 0.02 0.00 81 1016.0
20210417123933 51 165 3.0 14.0 0.00 0.02 0.00 82 1015.7
20210417123834 51 209 3.0 14.0 0.00 0.02 0.00 82 1015.7
20210417123134 51 186 1.0 11.0 0.00 0.02 0.00 83 1015.5
20210417123056 51 140 1.0 11.0 0.00 0.02 0.00 83 1015.4
20210417121832 51 214 3.0 14.0 0.00 0.02 0.00 83 1015.4
20210417121633 51 197 2.0 14.0 0.00 0.02 0.00 83 1015.5
20210417121528 51 157 2.0 14.0 0.00 0.03 0.00 82 1015.5
20210417121432 51 192 3.0 14.0 0.00 0.03 0.00 82 1015.4
20210417121334 51 209 3.0 14.0 0.00 0.03 0.00 82 1015.4
20210417121228 51 231 3.0 14.0 0.00 0.03 0.00 82 1015.4
20210417121132 51 134 3.0 14.0 0.00 0.03 0.00 82 1015.4
20210417121033 51 203 3.0 14.0 0.00 0.03 0.00 82 1015.2
20210417120932 51 242 3.0 14.0 0.00 0.03 0.00 82 1015.2
20210417120843 51 101 4.0 14.0 0.00 0.03 0.00 82 1015.3
20210417120738 51 195 4.0 14.0 0.00 0.03 0.00 82 1015.3
20210417120329 51 211 3.0 23.0 0.00 0.03 0.00 82 1015.2
20210417114851 51 132 4.0 23.0 0.00 0.03 0.00 81 1014.9
20210417114426 51 214 3.0 15.0 0.00 0.03 0.00 81 1014.9
20210417114323 51 163 3.0 15.0 0.00 0.03 0.00 81 1014.9
20210417113618 51 213 3.0 13.0 0.00 0.03 0.00 81 1014.9
20210417113217 51 189 3.0 13.0 0.00 0.03 0.00 81 1014.8
20210417112913 51 202 3.0 15.0 0.00 0.03 0.00 81 1014.7
20210417112042 51 256 4.0 17.0 0.00 0.03 0.00 81 1014.5
20210417111734 51 188 4.0 17.0 0.00 0.03 0.00 81 1014.5
20210417111025 51 148 4.0 17.0 0.00 0.03 0.00 81 1014.4
20210417110912 51 155 4.0 17.0 0.00 0.03 0.00 82 1014.2
20210417110820 51 217 4.0 17.0 0.00 0.03 0.00 82 1014.2
20210417110109 51 196 4.0 17.0 0.00 0.03 0.00 82 1013.8
20210417105842 52 220 4.0 15.0 0.00 0.04 0.00 82 1013.8
20210417105830 52 157 4.0 15.0 0.00 0.04 0.00 82 1013.8
20210417104300 52 198 2.0 16.0 0.00 0.04 0.00 83 1013.6
20210417103103 52 179 4.0 16.0 0.00 0.05 0.00 82 1013.7
20210417102634 52 215 4.0 16.0 0.00 0.05 0.00 82 1014.1
20210417102023 52 178 4.0 16.0 0.00 0.05 0.00 82 1014.2
20210417101445 52 196 5.0 16.0 0.00 0.05 0.00 82 1014.2
20210417100749 52 125 3.0 16.0 0.00 0.05 0.00 83 1014.0
20210417100646 52 207 3.0 16.0 0.00 0.05 0.00 83 1013.9
20210417100549 52 161 3.0 16.0 0.00 0.05 0.00 83 1013.8
20210417100148 52 144 3.0 17.0 0.00 0.05 0.00 83 1013.8
20210417095745 53 152 3.0 17.0 0.00 0.05 0.00 83 1013.9
20210417095731 53 227 3.0 17.0 0.00 0.05 0.00 83 1013.9
20210417095440 53 168 4.0 17.0 0.00 0.05 0.00 83 1013.8
20210417095343 53 196 4.0 17.0 0.00 0.05 0.00 83 1013.8
20210417094131 53 213 4.0 12.0 0.00 0.05 0.00 82 1013.9
20210417091640 54 117 3.0 14.0 0.00 0.05 0.00 83 1014.0
20210417091217 54 219 3.0 14.0 0.00 0.05 0.00 83 1014.0
20210417091113 54 180 3.0 14.0 0.00 0.05 0.00 83 1014.0
20210417090707 54 171 3.0 14.0 0.00 0.05 0.00 84 1013.9
20210417090032 54 178 2.0 11.0 0.00 0.05 0.00 85 1014.1
20210417085955 54 149 2.0 11.0 0.00 0.05 0.00 85 1014.1
20210417085943 55 169 2.0 11.0 0.00 0.05 0.00 85 1014.1
20210417085926 55 192 2.0 11.0 0.00 0.05 0.00 84 1014.1
20210417085915 55 208 2.0 11.0 0.00 0.05 0.00 85 1014.1
20210417085901 55 189 2.0 11.0 0.00 0.05 0.00 84 1014.2
20210417084157 55 182 2.0 12.0 0.00 0.05 0.00 84 1014.1
20210417083446 55 149 4.0 12.0 0.00 0.05 0.00 84 1014.1
20210417083344 55 212 4.0 12.0 0.00 0.05 0.00 84 1014.2
20210417083247 55 178 4.0 12.0 0.00 0.05 0.00 84 1014.2
20210417083147 55 138 4.0 12.0 0.00 0.05 0.00 84 1014.2
20210417082340 55 203 3.0 12.0 0.00 0.05 0.00 85 1013.9
20210417081749 55 140 3.0 12.0 0.00 0.05 0.00 85 1013.8
20210417081646 55 185 3.0 12.0 0.00 0.05 0.00 85 1013.7
20210417081543 55 122 3.0 12.0 0.00 0.05 0.00 85 1013.7
20210417081445 55 189 3.0 12.0 0.00 0.05 0.00 85 1013.7
20210417081345 56 159 3.0 12.0 0.00 0.05 0.00 85 1013.8
20210417080649 56 202 2.0 15.0 0.00 0.05 0.00 85 1013.5
20210417080538 56 185 2.0 15.0 0.00 0.05 0.00 85 1013.4